Location: Pine Mountain Observatory
(43.7910°N, 120.9377°W)
Time: 16:22:52
(UTC-07:00)

Explorer 11/Cluster Stage 4 - Pass Details

Date: 03 June 2019
Orbit: 467 x 1260 km, 28.8° (Epoch: 19 June)

Event Time Altitude Azimuth Distance (km) Brightness Sun altitude
Rises 01:19:48 0° 245° (WSW) 4,166 - -23.8°
Reaches altitude 10° 01:23:24 10° 233° (SW) 3,142 - -23.7°
Maximum altitude 01:29:25 24° 183° (S) 2,110 - -23.6°
Drops below altitude 10° 01:34:48 10° 132° (SE) 2,782 - -23.5°
Sets 01:37:46 0° 119° (ESE) 3,596 - -23.4°
